Date,TemperatureHighF,TemperatureAvgF,TemperatureLowF,DewpointHighF,DewpointAvgF,DewpointLowF,HumidityHigh,HumidityAvg,HumidityLow,PressureMaxIn,PressureMinIn,WindSpeedMaxMPH,WindSpeedAvgMPH,GustSpeedMaxMPH,PrecipitationSumIn
2014-1-1,66,47,35,-100,-100,-100,0,0,100,0.00,40.00,0,-999,0,0.00
2014-1-2,40,27,20,-100,-100,-100,0,0,100,0.00,40.00,0,-999,0,0.00
2014-1-3,53,37,24,-100,-100,-100,0,0,100,0.00,40.00,0,-999,0,0.00
2014-1-4,69,48,35,-100,-100,-100,0,0,100,0.00,40.00,0,-999,0,0.00
2014-1-5,41,27,18,-100,-100,-100,0,0,100,0.00,40.00,0,-999,0,0.00
2014-1-6,27,17,7,-100,-100,-100,0,0,100,0.00,40.00,0,-999,0,0.00
2014-1-7,45,29,14,-100,-100,-100,0,0,100,0.00,40.00,0,-999,0,0.00
2014-1-8,58,43,33,-100,-100,-100,0,0,100,0.00,40.00,0,-999,0,0.00
2014-1-9,52,41,32,-100,-100,-100,0,0,100,0.00,40.00,0,-999,0,0.00
2014-1-10,65,55,46,-100,-100,-100,0,0,100,0.00,40.00,0,-999,0,0.00
2014-1-11,65,52,36,-100,-100,-100,0,0,100,0.00,40.00,0,-999,0,0.00
2014-1-12,73,56,45,-100,-100,-100,0,0,100,0.00,40.00,0,-999,0,0.00
2014-1-13,58,49,38,-100,-100,-100,0,0,100,0.00,40.00,0,-999,0,0.00
2014-1-14,59,42,35,-100,-100,-100,0,0,100,0.00,40.00,0,-999,0,0.00
2014-1-15,58,42,28,-100,-100,-100,0,0,100,0.00,40.00,0,-999,0,0.00
2014-1-16,60,47,36,-100,-100,-100,0,0,100,0.00,40.00,0,-999,0,0.00
2014-1-17,54,44,35,-100,-100,-100,0,0,100,0.00,40.00,0,-999,0,0.00
2014-1-18,65,47,33,-100,-100,-100,0,0,100,0.00,40.00,0,-999,0,0.00
2014-1-19,66,46,31,-100,-100,-100,0,0,100,0.00,40.00,0,-999,0,0.00
2014-1-20,67,55,44,-100,-100,-100,0,0,100,0.00,40.00,0,-999,0,0.00
2014-1-21,53,42,32,-100,-100,-100,0,0,100,0.00,40.00,0,-999,0,0.00
2014-1-22,64,47,33,-100,-100,-100,0,0,100,0.00,40.00,0,-999,0,0.00
2014-1-23,40,27,19,-100,-100,-100,0,0,100,0.00,40.00,0,-999,0,0.00
2014-1-24,44,25,11,-100,-100,-100,0,0,100,0.00,40.00,0,-999,0,0.00
2014-1-25,65,51,29,-100,-100,-100,0,0,100,0.00,40.00,0,-999,0,0.00
2014-1-26,73,59,50,-100,-100,-100,0,0,100,0.00,40.00,0,-999,0,0.00
2014-1-27,50,30,24,-100,-100,-100,0,0,100,0.00,40.00,0,-999,0,0.00
2014-1-28,29,21,12,-100,-100,-100,0,0,100,0.00,40.00,0,-999,0,0.00
2014-1-29,47,29,13,-100,-100,-100,0,0,100,0.00,40.00,0,-999,0,0.00
2014-1-30,65,46,30,-100,-100,-100,0,0,100,0.00,40.00,0,-999,0,0.00
2014-1-31,79,58,44,-100,-100,-100,0,0,100,0.00,40.00,0,-999,0,0.00
2014-2-1,46,38,30,-100,-100,-100,0,0,100,0.00,40.00,0,-999,0,0.00
2014-2-2,36,26,24,-100,-100,-100,0,0,100,0.00,40.00,0,-999,0,0.00
2014-2-3,34,29,24,-100,-100,-100,0,0,100,0.00,40.00,0,-999,0,0.00
2014-2-4,48,39,32,-100,-100,-100,0,0,100,0.00,40.00,0,-999,0,0.00
2014-2-5,34,22,14,-100,-100,-100,0,0,100,0.00,40.00,0,-999,0,0.00
2014-2-6,17,14,10,-100,-100,-100,0,0,100,0.00,40.00,0,-999,0,0.00
2014-2-7,29,23,16,-100,-100,-100,0,0,100,0.00,40.00,0,-999,0,0.00
2014-2-8,67,45,25,-100,-100,-100,0,0,100,0.00,40.00,0,-999,0,0.00
2014-2-9,51,42,33,-100,-100,-100,0,0,100,0.00,40.00,0,-999,0,0.00
2014-2-10,32,25,21,-100,-100,-100,0,0,100,0.00,40.00,0,-999,0,0.00
2014-2-11,25,22,20,-100,-100,-100,0,0,100,0.00,40.00,0,-999,0,0.00
2014-2-12,48,35,22,-100,-100,-100,0,0,100,0.00,40.00,0,-999,0,0.00
2014-2-13,70,49,29,-100,-100,-100,0,0,100,0.00,40.00,0,-999,0,0.00
2014-2-14,65,56,47,-100,-100,-100,0,0,100,0.00,40.00,0,-999,0,0.00
2014-2-15,74,61,43,-100,-100,-100,0,0,100,0.00,40.00,0,-999,0,0.00
2014-2-16,73,58,40,-100,-100,-100,0,0,100,0.00,40.00,0,-999,0,0.00
2014-2-17,68,59,49,-100,-100,-100,0,0,100,0.00,40.00,0,-999,0,0.00
2014-2-18,81,60,43,-100,-100,-100,0,0,100,0.00,40.00,0,-999,0,0.00
2014-2-19,76,64,54,-100,-100,-100,0,0,100,0.00,40.00,0,-999,0,0.00
2014-2-20,65,57,40,-100,-100,-100,0,0,100,0.00,40.00,0,-999,0,0.00
2014-2-21,66,49,29,-100,-100,-100,0,0,100,0.00,40.00,0,-999,0,0.00
2014-2-22,78,58,40,-100,-100,-100,0,0,100,0.00,40.00,0,-999,0,0.00
2014-2-23,60,54,46,-100,-100,-100,0,0,100,0.00,40.00,0,-999,0,0.00
2014-2-24,58,43,36,-100,-100,-100,0,0,100,0.00,40.00,0,-999,0,0.00
2014-2-25,47,41,36,-100,-100,-100,0,0,100,0.00,40.00,0,-999,0,0.00
2014-2-26,36,29,22,-100,-100,-100,0,0,100,0.00,40.00,0,-999,0,0.00
2014-2-27,59,40,21,-100,-100,-100,0,0,100,0.00,40.00,0,-999,0,0.00
2014-2-28,78,59,40,-100,-100,-100,0,0,100,0.00,40.00,0,-999,0,0.00
2014-3-1,84,62,46,-100,-100,-100,0,0,100,0.00,40.00,0,-999,0,0.00
2014-3-2,38,19,10,-100,-100,-100,0,0,100,0.00,40.00,0,-999,0,0.00
2014-3-3,29,18,8,-100,-100,-100,0,0,100,0.00,40.00,0,-999,0,0.00
2014-3-4,60,36,21,-100,-100,-100,0,0,100,0.00,40.00,0,-999,0,0.00
2014-3-5,58,44,36,-100,-100,-100,0,0,100,0.00,40.00,0,-999,0,0.00
2014-3-6,64,44,35,-100,-100,-100,0,0,100,0.00,40.00,0,-999,0,0.00
2014-3-7,71,52,39,-100,-100,-100,0,0,100,0.00,40.00,0,-999,0,0.00
2014-3-8,54,42,32,-100,-100,-100,0,0,100,0.00,40.00,0,-999,0,0.00
2014-3-9,61,46,29,-100,-100,-100,0,0,100,0.00,40.00,0,-999,0,0.00
2014-3-10,77,57,41,-100,-100,-100,0,0,100,0.00,40.00,0,-999,0,0.00
2014-3-11,88,62,51,-100,-100,-100,0,0,100,0.00,40.00,0,-999,0,0.00
2014-3-12,57,46,36,-100,-100,-100,0,0,100,0.00,40.00,0,-999,0,0.00
2014-3-13,69,49,29,-100,-100,-100,0,0,100,0.00,40.00,0,-999,0,0.00
2014-3-14,76,60,46,-100,-100,-100,0,0,100,0.00,40.00,0,-999,0,0.00
2014-3-15,65,58,52,-100,-100,-100,0,0,100,0.00,40.00,0,-999,0,0.00
2014-3-16,53,44,38,-100,-100,-100,0,0,100,0.00,40.00,0,-999,0,0.00
2014-3-17,65,47,29,-100,-100,-100,0,0,100,0.00,40.00,0,-999,0,0.00
2014-3-18,87,66,46,-100,-100,-100,0,0,100,0.00,40.00,0,-999,0,0.00
2014-3-19,60,53,47,-100,-100,-100,0,0,100,0.00,40.00,0,-999,0,0.00
2014-3-20,75,53,34,-100,-100,-100,0,0,100,0.00,40.00,0,-999,0,0.00
2014-3-21,76,63,52,-100,-100,-100,0,0,100,0.00,40.00,0,-999,0,0.00
2014-3-22,60,55,45,-100,-100,-100,0,0,100,0.00,40.00,0,-999,0,0.00
2014-3-23,53,45,38,-100,-100,-100,0,0,100,0.00,40.00,0,-999,0,0.00
2014-3-24,69,51,33,-100,-100,-100,0,0,100,0.00,40.00,0,-999,0,0.00
2014-3-25,66,46,36,-100,-100,-100,0,0,100,0.00,40.00,0,-999,0,0.00
2014-3-26,59,52,43,-100,-100,-100,0,0,100,0.00,40.00,0,-999,0,0.00
2014-3-27,86,68,56,-100,-100,-100,0,0,100,0.00,40.00,0,-999,0,0.00
2014-3-28,76,64,49,-100,-100,-100,0,0,100,0.00,40.00,0,-999,0,0.00
2014-3-29,75,53,38,-100,-100,-100,0,0,100,0.00,40.00,0,-999,0,0.00
2014-3-30,82,65,47,-100,-100,-100,0,0,100,0.00,40.00,0,-999,0,0.00
2014-3-31,87,68,54,-100,-100,-100,0,0,100,0.00,40.00,0,-999,0,0.00
2014-4-1,84,72,58,-100,-100,-100,0,0,100,0.00,40.00,0,-999,0,0.00
2014-4-2,79,71,65,-100,-100,-100,0,0,100,0.00,40.00,0,-999,0,0.00
2014-4-3,90,76,66,-100,-100,-100,0,0,100,0.00,40.00,0,-999,0,0.00
2014-4-4,63,53,40,-100,-100,-100,0,0,100,0.00,40.00,0,-999,0,0.00
2014-4-5,63,52,47,-100,-100,-100,0,0,100,0.00,40.00,0,-999,0,0.00
2014-4-6,52,46,42,-100,-100,-100,0,0,100,0.00,40.00,0,-999,0,0.00
2014-4-7,65,52,46,-100,-100,-100,0,0,100,0.00,40.00,0,-999,0,0.00
2014-4-8,71,53,43,-100,-100,-100,0,0,100,0.00,40.00,0,-999,0,0.00
2014-4-9,87,64,45,-100,-100,-100,0,0,100,0.00,40.00,0,-999,0,0.00
2014-4-10,92,74,59,-100,-100,-100,0,0,100,0.00,40.00,0,-999,0,0.00
2014-4-11,88,71,56,-100,-100,-100,0,0,100,0.00,40.00,0,-999,0,0.00
2014-4-12,85,70,62,-100,-100,-100,0,0,100,0.00,40.00,0,-999,0,0.00
2014-4-13,81,69,64,-100,-100,-100,0,0,100,0.00,40.00,0,-999,0,0.00
2014-4-14,69,46,38,-100,-100,-100,0,0,100,0.00,40.00,0,-999,0,0.00
2014-4-15,65,50,30,-100,-100,-100,0,0,100,0.00,40.00,0,-999,0,0.00
2014-4-16,73,57,40,-100,-100,-100,0,0,100,0.00,40.00,0,-999,0,0.00
2014-4-17,62,56,51,-100,-100,-100,0,0,100,0.00,40.00,0,-999,0,0.00
2014-4-18,73,60,54,-100,-100,-100,0,0,100,0.00,40.00,0,-999,0,0.00
2014-4-19,79,64,52,-100,-100,-100,0,0,100,0.00,40.00,0,-999,0,0.00
2014-4-20,71,63,58,-100,-100,-100,0,0,100,0.00,40.00,0,-999,0,0.00
2014-4-21,83,69,60,-100,-100,-100,0,0,100,0.00,40.00,0,-999,0,0.00
2014-4-22,83,68,55,-100,-100,-100,0,0,100,0.00,40.00,0,-999,0,0.00
2014-4-23,87,70,56,-100,-100,-100,0,0,100,0.00,40.00,0,-999,0,0.00
2014-4-24,79,70,62,-100,-100,-100,0,0,100,0.00,40.00,0,-999,0,0.00
2014-4-25,87,73,52,-100,-100,-100,0,0,100,0.00,40.00,0,-999,0,0.00
2014-4-26,87,72,62,-100,-100,-100,0,0,100,0.00,40.00,0,-999,0,0.00
2014-4-27,88,75,68,-100,-100,-100,0,0,100,0.00,40.00,0,-999,0,0.00
2014-4-28,83,69,54,-100,-100,-100,0,0,100,0.00,40.00,0,-999,0,0.00
2014-4-29,70,63,56,-100,-100,-100,0,0,100,0.00,40.00,0,-999,0,0.00
2014-4-30,64,56,46,-100,-100,-100,0,0,100,0.00,40.00,0,-999,0,0.00
2014-5-1,69,56,37,-100,-100,-100,0,0,100,0.00,40.00,0,-999,0,0.00
2014-5-2,78,63,49,-100,-100,-100,0,0,100,0.00,40.00,0,-999,0,0.00
2014-5-3,92,69,46,-100,-100,-100,0,0,100,0.00,40.00,0,-999,0,0.00
2014-5-4,94,77,63,-100,-100,-100,0,0,100,0.00,40.00,0,-999,0,0.00
2014-5-5,98,82,65,-100,-100,-100,0,0,100,0.00,40.00,0,-999,0,0.00
2014-5-13,60,52,48,-100,-100,-100,0,0,100,0.00,40.00,0,-999,0,0.00
2014-5-14,70,58,43,-100,-100,-100,0,0,100,0.00,40.00,0,-999,0,0.00
2014-5-15,82,65,46,-100,-100,-100,0,0,100,0.00,40.00,0,-999,0,0.00
2014-5-16,93,73,51,-100,-100,-100,0,0,100,0.00,40.00,0,-999,0,0.00
2014-5-17,88,75,61,-100,-100,-100,0,0,100,0.00,40.00,0,-999,0,0.00
2014-5-18,88,75,60,-100,-100,-100,0,0,100,0.00,40.00,0,-999,0,0.00
2014-5-19,90,74,62,-100,-100,-100,0,0,100,0.00,40.00,0,-999,0,0.00
2014-5-20,91,76,63,-100,-100,-100,0,0,100,0.00,40.00,0,-999,0,0.00
2014-5-21,91,78,67,-100,-100,-100,0,0,100,0.00,40.00,0,-999,0,0.00
2014-5-22,87,76,65,-100,-100,-100,0,0,100,0.00,40.00,0,-999,0,0.00
2014-5-23,84,73,67,-100,-100,-100,0,0,100,0.00,40.00,0,-999,0,0.00
2014-5-24,79,71,65,-100,-100,-100,0,0,100,0.00,40.00,0,-999,0,0.00
2014-5-25,73,66,60,-100,-100,-100,0,0,100,0.00,40.00,0,-999,0,0.00
2014-5-26,84,72,62,-100,-100,-100,0,0,100,0.00,40.00,0,-999,0,0.00
2014-5-27,79,67,58,-100,-100,-100,0,0,100,0.00,40.00,0,-999,0,0.00
2014-5-28,79,70,60,-100,-100,-100,0,0,100,0.00,40.00,0,-999,0,0.00
2014-5-29,87,72,62,-100,-100,-100,0,0,100,0.00,40.00,0,-999,0,0.00
2014-5-30,85,75,64,-100,-100,-100,0,0,100,0.00,40.00,0,-999,0,0.00
2014-5-31,85,75,63,-100,-100,-100,0,0,100,0.00,40.00,0,-999,0,0.00
2014-6-1,90,78,67,-100,-100,-100,0,0,100,0.00,40.00,0,-999,0,0.00
2014-6-2,90,78,69,-100,-100,-100,0,0,100,0.00,40.00,0,-999,0,0.00
2014-6-3,90,78,67,-100,-100,-100,0,0,100,0.00,40.00,0,-999,0,0.00
2014-6-4,94,78,69,-100,-100,-100,0,0,100,0.00,40.00,0,-999,0,0.00
2014-6-5,93,80,68,-100,-100,-100,0,0,100,0.00,40.00,0,-999,0,0.00
2014-6-6,92,81,69,-100,-100,-100,0,0,100,0.00,40.00,0,-999,0,0.00
2014-6-7,93,81,69,-100,-100,-100,0,0,100,0.00,40.00,0,-999,0,0.00
2014-6-8,81,75,63,-100,-100,-100,0,0,100,0.00,40.00,0,-999,0,0.00
2014-6-9,79,72,58,-100,-100,-100,0,0,100,0.00,40.00,0,-999,0,0.00
2014-6-10,82,69,58,-100,-100,-100,0,0,100,0.00,40.00,0,-999,0,0.00
2014-6-11,92,80,62,-100,-100,-100,0,0,100,0.00,40.00,0,-999,0,0.00
2014-6-12,85,75,69,-100,-100,-100,0,0,100,0.00,40.00,0,-999,0,0.00
2014-6-13,87,76,65,-100,-100,-100,0,0,100,0.00,40.00,0,-999,0,0.00
2014-6-14,87,75,65,-100,-100,-100,0,0,100,0.00,40.00,0,-999,0,0.00
2014-6-15,91,78,69,-100,-100,-100,0,0,100,0.00,40.00,0,-999,0,0.00
2014-6-16,92,79,71,-100,-100,-100,0,0,100,0.00,40.00,0,-999,0,0.00
2014-6-17,88,82,73,-100,-100,-100,0,0,100,0.00,40.00,0,-999,0,0.00
2014-6-18,87,79,71,-100,-100,-100,0,0,100,0.00,40.00,0,-999,0,0.00
2014-6-19,87,79,71,-100,-100,-100,0,0,100,0.00,40.00,0,-999,0,0.00
2014-6-20,87,78,68,-100,-100,-100,0,0,100,0.00,40.00,0,-999,0,0.00
2014-6-22,84,78,72,-100,-100,-100,0,0,100,0.00,40.00,0,-999,0,0.00
2014-6-23,81,74,62,-100,-100,-100,0,0,100,0.00,40.00,0,-999,0,0.00
2014-6-24,82,74,68,-100,-100,-100,0,0,100,0.00,40.00,0,-999,0,0.00
2014-6-25,88,74,66,-100,-100,-100,0,0,100,0.00,40.00,0,-999,0,0.00
2014-6-26,90,79,69,-100,-100,-100,0,0,100,0.00,40.00,0,-999,0,0.00
2014-6-27,91,79,70,-100,-100,-100,0,0,100,0.00,40.00,0,-999,0,0.00
2014-6-28,92,83,73,-100,-100,-100,0,0,100,0.00,40.00,0,-999,0,0.00
2014-6-29,94,86,73,-100,-100,-100,0,0,100,0.00,40.00,0,-999,0,0.00
2014-6-30,97,82,71,-100,-100,-100,0,0,100,0.00,40.00,0,-999,0,0.00
2014-7-1,94,83,71,-100,-100,-100,0,0,100,0.00,40.00,0,-999,0,0.00
2014-7-2,86,74,69,-100,-100,-100,0,0,100,0.00,40.00,0,-999,0,0.00
2014-7-3,84,75,69,-100,-100,-100,0,0,100,0.00,40.00,0,-999,0,0.00
2014-7-4,92,77,69,-100,-100,-100,0,0,100,0.00,40.00,0,-999,0,0.00
2014-7-5,94,76,67,-100,-100,-100,0,0,100,0.00,40.00,0,-999,0,0.00
2014-7-6,93,81,69,-100,-100,-100,0,0,100,0.00,40.00,0,-999,0,0.00
2014-7-7,96,82,71,-100,-100,-100,0,0,100,0.00,40.00,0,-999,0,0.00
2014-7-8,98,83,70,-100,-100,-100,0,0,100,0.00,40.00,0,-999,0,0.00
2014-7-9,98,87,75,-100,-100,-100,0,0,100,0.00,40.00,0,-999,0,0.00
2014-7-10,98,88,71,-100,0,200,0,0,100,0.00,40.00,0,0,0,0.00
2014-7-11,91,81,69,-100,0,200,0,0,100,0.00,40.00,0,0,0,0.00
2014-7-12,94,78,69,-100,0,200,0,0,100,0.00,40.00,0,0,0,0.00
2014-7-13,98,78,69,-100,0,200,0,0,100,0.00,40.00,0,0,0,0.00
2014-7-14,99,80,72,-100,0,200,0,0,100,0.00,40.00,0,0,0,0.00
2014-7-15,87,79,72,-100,0,200,0,0,100,0.00,40.00,0,0,0,0.00
2014-7-16,84,74,65,-100,0,200,0,0,100,0.00,40.00,0,0,0,0.00
2014-7-17,76,72,68,-100,0,200,0,0,100,0.00,40.00,0,0,0,0.00
2014-7-18,76,67,63,-100,0,200,0,0,100,0.00,40.00,0,0,0,0.00
2014-7-19,89,73,61,-100,0,200,0,0,100,0.00,40.00,0,0,0,0.00
2014-7-20,94,82,65,-100,0,200,0,0,100,0.00,40.00,0,0,0,0.00
2014-7-21,97,83,73,-100,0,200,0,0,100,0.00,40.00,0,0,0,0.00
2014-7-22,99,83,73,-100,0,200,0,0,100,0.00,40.00,0,0,0,0.00
2014-7-23,95,85,74,-100,0,200,0,0,100,0.00,40.00,0,0,0,0.00
2014-7-24,98,86,73,-100,0,200,0,0,100,0.00,40.00,0,0,0,0.00
2014-7-25,100,89,71,-100,0,200,0,0,100,0.00,40.00,0,0,0,0.00
2014-7-26,99,88,76,-100,0,200,0,0,100,0.00,40.00,0,0,0,0.00
2014-7-27,102,92,79,-100,0,200,0,0,100,0.00,40.00,0,0,0,0.00
2014-7-28,91,82,74,-100,0,200,0,0,100,0.00,40.00,0,0,0,0.00
2014-7-29,93,80,71,-100,0,200,0,0,100,0.00,40.00,0,0,0,0.00
2014-7-30,97,85,73,-100,0,200,0,0,100,0.00,40.00,0,0,0,0.00
2014-7-31,82,76,71,-100,0,200,0,0,100,0.00,40.00,0,0,0,0.00
2014-8-1,82,72,63,-100,0,200,0,0,100,0.00,40.00,0,0,0,0.00
2014-8-2,85,71,62,-100,0,200,0,0,100,0.00,40.00,0,0,0,0.00
2014-8-3,90,78,63,-100,0,200,0,0,100,0.00,40.00,0,0,0,0.00
2014-8-4,93,75,65,-100,0,200,0,0,100,0.00,40.00,0,0,0,0.00
2014-8-5,98,85,72,-100,0,200,0,0,100,0.00,40.00,0,0,0,0.00
2014-8-6,102,89,74,-100,0,200,0,0,100,0.00,40.00,0,0,0,0.00
2014-8-7,105,95,82,-100,0,200,0,0,100,0.00,40.00,0,0,0,0.00
2014-8-8,105,89,74,-100,0,200,0,0,100,0.00,40.00,0,0,0,0.00
2014-8-9,99,85,76,-100,0,200,0,0,100,0.00,40.00,0,0,0,0.00
2014-8-10,104,91,74,-100,0,200,0,0,100,0.00,40.00,0,0,0,0.00
2014-8-11,91,83,73,-100,0,200,0,0,100,0.00,40.00,0,0,0,0.00
2014-8-12,92,84,73,-100,0,200,0,0,100,0.00,40.00,0,0,0,0.00
2014-8-13,98,83,70,-100,0,200,0,0,100,0.00,40.00,0,0,0,0.00
2014-8-14,100,84,69,-100,0,200,0,0,100,0.00,40.00,0,0,0,0.00
2014-8-15,103,90,73,-100,0,200,0,0,100,0.00,40.00,0,0,0,0.00
2014-8-16,95,82,76,-100,0,200,0,0,100,0.00,40.00,0,0,0,0.00
2014-8-17,92,83,79,-100,0,200,0,0,100,0.00,40.00,0,0,0,0.00
2014-8-18,83,77,71,-100,0,200,0,0,100,0.00,40.00,0,0,0,0.00
2014-8-19,87,75,68,-100,0,200,0,0,100,0.00,40.00,0,0,0,0.00